| time (UTC) | temp C | wind direction | speed KPH | gust KPH | rain 1hr cm | rain 24hr cm | rain mn cm | humidity % | barometer mb |
| 20260506103517 | 17 | 29 | 6.4 | 16.1 | 0.00 | 0.79 | 0.03 | 66 | 1006.0 |
| 20260506102516 | 17 | 37 | 4.8 | 11.3 | 0.00 | 0.79 | 0.03 | 66 | 1006.0 |
| 20260506101517 | 17 | 23 | 4.8 | 12.9 | 0.00 | 0.79 | 0.03 | 65 | 1006.2 |
| 20260506100537 | 17 | 30 | 3.2 | 8.0 | 0.00 | 0.79 | 0.03 | 67 | 1006.2 |
| 20260506095515 | 16 | 7 | 3.2 | 9.7 | 0.00 | 0.79 | 0.03 | 67 | 1006.2 |
| 20260506094516 | 16 | 350 | 6.4 | 12.9 | 0.00 | 0.79 | 0.03 | 68 | 1006.2 |
| 20260506093517 | 16 | 354 | 3.2 | 11.3 | 0.00 | 0.79 | 0.03 | 68 | 1006.2 |
| 20260506092517 | 16 | 9 | 3.2 | 8.0 | 0.00 | 0.79 | 0.03 | 67 | 1006.2 |
| 20260506091515 | 16 | 319 | 3.2 | 9.7 | 0.00 | 0.79 | 0.03 | 69 | 1006.2 |
| 20260506090518 | 16 | 330 | 4.8 | 12.9 | 0.00 | 0.79 | 0.03 | 67 | 1006.2 |
| 20260506085516 | 16 | 9 | 4.8 | 12.9 | 0.00 | 0.79 | 0.03 | 69 | 1006.3 |
| 20260506084535 | 16 | 8 | 6.4 | 12.9 | 0.00 | 0.79 | 0.03 | 70 | 1006.3 |
| 20260506083517 | 15 | 360 | 3.2 | 11.3 | 0.00 | 0.79 | 0.03 | 69 | 1006.4 |
| 20260506082515 | 15 | 352 | 3.2 | 8.0 | 0.00 | 0.79 | 0.03 | 68 | 1006.5 |
| 20260506081515 | 15 | 332 | 4.8 | 11.3 | 0.00 | 0.79 | 0.03 | 69 | 1006.6 |
| 20260506080536 | 15 | 343 | 4.8 | 8.0 | 0.00 | 0.79 | 0.03 | 69 | 1006.6 |
| 20260506073517 | 15 | 316 | 3.2 | 6.4 | 0.00 | 0.79 | 0.03 | 70 | 1006.7 |
| 20260506072517 | 15 | 22 | 4.8 | 8.0 | 0.00 | 0.79 | 0.03 | 74 | 1006.9 |
| 20260506071515 | 14 | 97 | 1.6 | 4.8 | 0.00 | 0.79 | 0.03 | 76 | 1007.0 |
| 20260506070516 | 13 | 0.0 | 0.0 | 0.00 | 0.79 | 0.03 | 77 | 1007.0 | |
| 20260506061517 | 12 | 0.0 | 0.0 | 0.00 | 0.79 | 0.03 | 89 | 1007.2 | |
| 20260506060516 | 12 | 0.0 | 0.0 | 0.00 | 0.79 | 0.03 | 90 | 1007.3 | |
| 20260506050517 | 9 | 147 | 1.6 | 4.8 | 0.00 | 0.79 | 0.03 | 92 | 1007.6 |
| 20260506044517 | 9 | 146 | 1.6 | 3.2 | 0.00 | 0.79 | 0.03 | 92 | 1007.3 |
| 20260506043517 | 9 | 146 | 1.6 | 3.2 | 0.00 | 0.79 | 0.03 | 92 | 1007.4 |
| 20260506042537 | 9 | 0.0 | 0.0 | 0.00 | 0.79 | 0.03 | 92 | 1007.6 | |
| 20260506041517 | 9 | 146 | 0.0 | 1.6 | 0.00 | 0.79 | 0.03 | 92 | 1007.7 |
| 20260506040515 | 9 | 146 | 1.6 | 1.6 | 0.00 | 0.79 | 0.03 | 91 | 1007.7 |
| 20260506035517 | 9 | 0.0 | 0.0 | 0.00 | 0.79 | 0.03 | 91 | 1007.6 | |
| 20260506034515 | 9 | 146 | 0.0 | 1.6 | 0.00 | 0.79 | 0.03 | 91 | 1007.7 |
| 20260506033517 | 9 | 0.0 | 0.0 | 0.00 | 0.79 | 0.03 | 91 | 1007.8 | |
| 20260506032516 | 9 | 146 | 0.0 | 3.2 | 0.00 | 0.79 | 0.03 | 91 | 1007.8 |
| 20260506031517 | 9 | 146 | 0.0 | 1.6 | 0.00 | 0.79 | 0.03 | 91 | 1008.0 |
| 20260506030516 | 9 | 147 | 1.6 | 3.2 | 0.00 | 0.79 | 0.03 | 91 | 1008.2 |
| 20260506025515 | 9 | 147 | 1.6 | 3.2 | 0.00 | 0.79 | 0.03 | 91 | 1008.3 |
| 20260506024518 | 9 | 147 | 1.6 | 4.8 | 0.00 | 0.79 | 0.03 | 91 | 1008.3 |
| 20260506023515 | 9 | 139 | 3.2 | 4.8 | 0.00 | 0.79 | 0.03 | 91 | 1008.4 |
| 20260506022516 | 9 | 127 | 1.6 | 3.2 | 0.00 | 0.79 | 0.03 | 91 | 1008.3 |
| 20260506021515 | 9 | 128 | 3.2 | 6.4 | 0.00 | 0.79 | 0.03 | 91 | 1008.2 |
| 20260506020518 | 9 | 131 | 1.6 | 4.8 | 0.00 | 0.79 | 0.03 | 91 | 1008.3 |
| 20260506015516 | 9 | 131 | 1.6 | 3.2 | 0.00 | 0.79 | 0.03 | 91 | 1008.4 |
| 20260506014517 | 9 | 130 | 1.6 | 3.2 | 0.00 | 0.79 | 0.03 | 91 | 1008.3 |
| 20260506013517 | 10 | 130 | 3.2 | 4.8 | 0.00 | 0.79 | 0.03 | 91 | 1008.4 |
| 20260506012520 | 10 | 156 | 3.2 | 6.4 | 0.00 | 0.79 | 0.03 | 91 | 1008.5 |
| 20260506011537 | 10 | 170 | 0.0 | 1.6 | 0.03 | 0.79 | 0.03 | 91 | 1008.6 |
| 20260506010516 | 10 | 170 | 1.6 | 3.2 | 0.03 | 0.79 | 0.03 | 91 | 1008.5 |
| 20260506005530 | 10 | 179 | 1.6 | 3.2 | 0.03 | 0.79 | 0.03 | 91 | 1008.5 |
| 20260506004517 | 10 | 179 | 0.0 | 3.2 | 0.03 | 0.79 | 0.03 | 90 | 1008.5 |
| 20260506003518 | 10 | 179 | 1.6 | 4.8 | 0.03 | 0.79 | 0.03 | 90 | 1008.7 |
| 20260506002516 | 10 | 181 | 3.2 | 4.8 | 0.03 | 0.79 | 0.03 | 90 | 1008.7 |
| 20260506001515 | 11 | 181 | 3.2 | 8.0 | 0.00 | 0.76 | 0.00 | 90 | 1008.8 |
| 20260506000517 | 11 | 197 | 4.8 | 8.0 | 0.00 | 0.76 | 0.00 | 90 | 1008.9 |
| 20260505235559 | 11 | 170 | 4.8 | 9.7 | 0.00 | 0.76 | 0.00 | 90 | 1008.9 |
| 20260505234519 | 11 | 176 | 3.2 | 9.7 | 0.00 | 0.76 | 0.00 | 90 | 1008.9 |
| 20260505233517 | 11 | 200 | 4.8 | 9.7 | 0.00 | 0.76 | 0.00 | 90 | 1009.1 |
| 20260505232519 | 11 | 204 | 6.4 | 11.3 | 0.00 | 0.76 | 0.00 | 90 | 1009.1 |
| 20260505231516 | 11 | 200 | 6.4 | 11.3 | 0.00 | 0.76 | 0.00 | 90 | 1009.2 |
| 20260505230515 | 11 | 200 | 8.0 | 16.1 | 0.00 | 0.76 | 0.00 | 90 | 1009.2 |
| 20260505225557 | 11 | 204 | 6.4 | 12.9 | 0.00 | 0.76 | 0.00 | 90 | 1009.2 |
| 20260505224517 | 11 | 206 | 6.4 | 11.3 | 0.00 | 0.76 | 0.00 | 90 | 1009.0 |
| 20260505223518 | 12 | 197 | 6.4 | 14.5 | 0.05 | 0.76 | 0.00 | 90 | 1009.1 |
| 20260505222516 | 12 | 200 | 9.7 | 17.7 | 0.13 | 0.76 | 0.00 | 90 | 1009.3 |
| 20260505221517 | 12 | 203 | 11.3 | 25.7 | 0.15 | 0.76 | 0.00 | 90 | 1009.5 |
| 20260505220516 | 12 | 197 | 9.7 | 16.1 | 0.18 | 0.76 | 0.00 | 90 | 1009.5 |
| 20260505215515 | 12 | 210 | 11.3 | 20.9 | 0.30 | 0.76 | 0.76 | 89 | 1009.5 |
| 20260505214516 | 12 | 219 | 12.9 | 20.9 | 0.38 | 0.76 | 0.76 | 89 | 1009.6 |
| 20260505213515 | 12 | 210 | 11.3 | 22.5 | 0.33 | 0.71 | 0.71 | 89 | 1009.6 |
| 20260505212517 | 12 | 214 | 9.7 | 19.3 | 0.25 | 0.64 | 0.64 | 88 | 1009.6 |
| 20260505211516 | 12 | 229 | 6.4 | 16.1 | 0.23 | 0.61 | 0.61 | 88 | 1009.3 |
| 20260505210517 | 12 | 242 | 9.7 | 17.7 | 0.20 | 0.58 | 0.58 | 87 | 1009.2 |
| 20260505205516 | 12 | 230 | 11.3 | 24.1 | 0.08 | 0.46 | 0.46 | 85 | 1009.2 |
| 20260505204515 | 13 | 229 | 12.9 | 22.5 | 0.00 | 0.38 | 0.38 | 84 | 1009.0 |
| 20260505203516 | 13 | 233 | 8.0 | 17.7 | 0.00 | 0.38 | 0.38 | 84 | 1008.9 |
| 20260505202516 | 13 | 224 | 8.0 | 20.9 | 0.00 | 0.38 | 0.38 | 84 | 1008.8 |
| 20260505201516 | 13 | 232 | 8.0 | 17.7 | 0.00 | 0.38 | 0.38 | 85 | 1008.6 |
| 20260505200516 | 13 | 245 | 6.4 | 20.9 | 0.00 | 0.38 | 0.38 | 87 | 1008.2 |
| 20260505195517 | 13 | 223 | 1.6 | 4.8 | 0.00 | 0.38 | 0.38 | 86 | 1007.8 |
| 20260505194517 | 13 | 209 | 1.6 | 4.8 | 0.00 | 0.38 | 0.38 | 85 | 1007.6 |
| 20260505193535 | 13 | 209 | 1.6 | 3.2 | 0.00 | 0.38 | 0.38 | 84 | 1007.4 |
| 20260505192516 | 13 | 210 | 1.6 | 4.8 | 0.00 | 0.38 | 0.38 | 83 | 1007.3 |
| 20260505191516 | 13 | 229 | 1.6 | 3.2 | 0.00 | 0.38 | 0.38 | 82 | 1007.1 |
| 20260505190517 | 14 | 229 | 0.0 | 3.2 | 0.00 | 0.38 | 0.38 | 81 | 1007.0 |
| 20260505185536 | 14 | 256 | 3.2 | 4.8 | 0.00 | 0.38 | 0.38 | 80 | 1007.1 |
| 20260505184559 | 14 | 267 | 4.8 | 11.3 | 0.00 | 0.38 | 0.38 | 78 | 1007.0 |
| 20260505183515 | 14 | 274 | 8.0 | 16.1 | 0.00 | 0.38 | 0.38 | 78 | 1006.8 |
| 20260505182515 | 14 | 279 | 6.4 | 12.9 | 0.00 | 0.38 | 0.38 | 80 | 1006.6 |
| 20260505181520 | 15 | 272 | 8.0 | 16.1 | 0.00 | 0.38 | 0.38 | 81 | 1006.7 |
| 20260505180516 | 15 | 283 | 6.4 | 11.3 | 0.00 | 0.38 | 0.38 | 81 | 1006.4 |
| 20260505175517 | 15 | 285 | 4.8 | 9.7 | 0.00 | 0.38 | 0.38 | 79 | 1006.3 |
| 20260505174538 | 16 | 299 | 4.8 | 12.9 | 0.00 | 0.38 | 0.38 | 77 | 1006.2 |
| 20260505173603 | 16 | 285 | 6.4 | 12.9 | 0.00 | 0.38 | 0.38 | 77 | 1006.1 |
| 20260505172515 | 16 | 291 | 4.8 | 14.5 | 0.00 | 0.38 | 0.38 | 76 | 1006.1 |
| 20260505171517 | 16 | 296 | 3.2 | 11.3 | 0.00 | 0.38 | 0.38 | 77 | 1006.1 |
| 20260505170516 | 16 | 284 | 4.8 | 11.3 | 0.00 | 0.38 | 0.38 | 78 | 1006.0 |
| 20260505165515 | 16 | 338 | 6.4 | 11.3 | 0.00 | 0.38 | 0.38 | 78 | 1006.0 |
| 20260505164540 | 16 | 333 | 4.8 | 11.3 | 0.00 | 0.38 | 0.38 | 78 | 1006.0 |
| 20260505163516 | 15 | 327 | 6.4 | 12.9 | 0.00 | 0.38 | 0.38 | 79 | 1006.1 |
| 20260505162517 | 15 | 344 | 4.8 | 8.0 | 0.00 | 0.38 | 0.38 | 81 | 1006.0 |
| 20260505161515 | 15 | 25 | 3.2 | 6.4 | 0.03 | 0.38 | 0.38 | 82 | 1006.0 |
| 20260505160538 | 15 | 7 | 3.2 | 8.0 | 0.05 | 0.38 | 0.38 | 83 | 1006.1 |
| 20260505152536 | 14 | 205 | 3.2 | 8.0 | 0.28 | 0.38 | 0.38 | 84 | 1006.7 |
| 20260505151517 | 14 | 268 | 3.2 | 6.4 | 0.36 | 0.36 | 0.36 | 85 | 1006.8 |
| 20260505150516 | 14 | 230 | 4.8 | 11.3 | 0.33 | 0.33 | 0.33 | 84 | 1006.9 |
| 20260505140517 | 22 | 267 | 4.8 | 12.9 | 0.00 | 0.00 | 0.00 | 48 | 1005.6 |
| 20260505124519 | 22 | 304 | 8.0 | 14.5 | 0.00 | 0.00 | 0.00 | 42 | 1005.7 |
| 20260505123517 | 22 | 258 | 6.4 | 14.5 | 0.00 | 0.00 | 0.00 | 41 | 1005.7 |
| 20260505122537 | 23 | 342 | 4.8 | 8.0 | 0.00 | 0.00 | 0.00 | 42 | 1005.8 |
| 20260505121515 | 23 | 352 | 4.8 | 9.7 | 0.00 | 0.00 | 0.00 | 41 | 1005.9 |
| 20260505120517 | 23 | 85 | 6.4 | 14.5 | 0.00 | 0.00 | 0.00 | 40 | 1005.9 |
| 20260505115515 | 23 | 31 | 4.8 | 16.1 | 0.00 | 0.00 | 0.00 | 40 | 1005.9 |
| 20260505114519 | 23 | 314 | 4.8 | 9.7 | 0.00 | 0.00 | 0.00 | 41 | 1005.9 |
| 20260505113515 | 23 | 239 | 4.8 | 11.3 | 0.00 | 0.00 | 0.00 | 41 | 1006.0 |
| 20260505112518 | 23 | 79 | 3.2 | 6.4 | 0.00 | 0.00 | 0.00 | 41 | 1006.1 |
| 20260505111516 | 23 | 69 | 4.8 | 14.5 | 0.00 | 0.00 | 0.00 | 41 | 1006.3 |
| 20260505110515 | 22 | 47 | 3.2 | 6.4 | 0.00 | 0.00 | 0.00 | 43 | 1006.4 |